This is the latest recevied weather packets stored in our database for station/object MM1PTT-13. If no packets are shown the sender has not sent any weather packets the latest 10 day(s).
| Time | Temp. | Humidity | Pressure | Rain* | Wind** | Luminosity | Snow |
|---|---|---|---|---|---|---|---|
| 1777730442 | 15° C | 72% | 984.8 hPa | 0 mm | - | 132 W/m² | - |
| 1777730143 | 15° C | 72% | 984.4 hPa | 0 mm | - | 165 W/m² | - |
| 1777729842 | 15.56° C | 70% | 984.4 hPa | 0 mm | - | 213 W/m² | - |
| 1777729543 | 15.56° C | 70% | 984.4 hPa | 0 mm | - | 307 W/m² | - |
| 1777729243 | 16.11° C | 69% | 984.8 hPa | 0 mm | - | 244 W/m² | - |
| 1777728942 | 16.11° C | 69% | 984.8 hPa | 0 mm | - | 367 W/m² | - |
| 1777728644 | 15.56° C | 70% | 984.8 hPa | 0 mm | - | 357 W/m² | - |
| 1777728343 | 15.56° C | 71% | 984.8 hPa | 0 mm | - | 329 W/m² | - |
| 1777728042 | 15.56° C | 72% | 984.4 hPa | 0 mm | - | 294 W/m² | - |
| 1777727743 | 15.56° C | 72% | 984.8 hPa | 0 mm | - | 361 W/m² | - |
| 1777727443 | 15° C | 74% | 984.4 hPa | 0 mm | - | 439 W/m² | - |
| 1777727143 | 15° C | 75% | 984.8 hPa | 0 mm | - | 291 W/m² | - |
| 1777726843 | 15° C | 75% | 984.8 hPa | 0 mm | - | 172 W/m² | - |
| 1777726543 | 15.56° C | 71% | 984.8 hPa | 0 mm | - | 223 W/m² | - |
| 1777726243 | 15.56° C | 71% | 984.8 hPa | 0 mm | - | 462 W/m² | - |
| 1777725942 | 16.11° C | 71% | 984.8 hPa | 0 mm | - | 368 W/m² | - |
| 1777725642 | 16.11° C | 71% | 984.8 hPa | 0 mm | - | 416 W/m² | - |
| 1777725343 | 15.56° C | 73% | 985.1 hPa | 0 mm | - | 479 W/m² | - |
| 1777725042 | 15.56° C | 74% | 984.8 hPa | 0 mm | - | 420 W/m² | - |
| 1777724742 | 15° C | 75% | 984.8 hPa | 0 mm | - | 470 W/m² | - |
| 1777724442 | 15° C | 75% | 984.8 hPa | 0 mm | - | 478 W/m² | - |
| 1777724145 | 15° C | 75% | 984.8 hPa | 0 mm | - | 517 W/m² | - |
| 1777723843 | 14.44° C | 76% | 984.8 hPa | 0 mm | - | 676 W/m² | - |
| 1777723542 | 14.44° C | 77% | 985.1 hPa | 0 mm | - | 332 W/m² | - |
| 1777723242 | 14.44° C | 76% | 985.1 hPa | 0 mm | - | 213 W/m² | - |
* Rain latest hour (hover to see other rain measurements)
** Current wind speed in m/s (hover to see current wind gust speed)